Location: Bezawada
(16.5136°N, 80.6297°E)
Time: 09:36:12
(UTC+00:00)

ATLAS 2AS CENTAUR R/B - Pass Details

Date: 27 February 2020
Orbit: 929 x 1283 km, 63.7° (Epoch: 05 April)

Event Time Altitude Azimuth Distance (km) Brightness Sun altitude
Rises 14:15:30 0° 201° (SSW) 4,026 6.0 -22.7°
Reaches altitude 10° 14:18:08 10° 200° (SSW) 3,110 5.4 -23.3°
Maximum altitude 14:25:42 81° 114° (ESE) 1,261 2.9 -25.2°
Enters shadow 14:30:53 24° 29° (NNE) 2,347 4.2 -26.4°
